• Join FlightAware (Why Join?)
  • Login
  • US Flag GB Flag 
02:42 EDT


 

Airport Tracker/Info


-or-


 

Live Flight TrackerFlight Track Log ✈ SWA1729 ✈ 23-Apr-2013 ✈ KBNA - KHOU

Flight Track Log - Related Links

Times and Time Zones

All times are in EDT time to prevent confusion due to time zone crossing. See the SWA1729 flight status page for this flight to view local times or setup timezone preferences in your user account.

Time Position Orientation Groundspeed Altitude Reporting Facility
EDT Latitude Longitude Course Direction KTS MPH feet Rate Location/Type
22:09 36.1000 -86.6833 270° West 148 170 1,600  Level Nashville TRACON
22:10 36.1000 -86.7333 270° West 182 209 2,900 2,340 Climbing Nashville TRACON
22:11 36.0833 -86.8000 253° West 245 282 5,600 3,300 Climbing Nashville TRACON
22:12 36.0833 -86.8833 270° West 255 293 9,500 3,240 Climbing Nashville TRACON
22:12 36.0883 -86.9358 277° West 248 285 10,900 2,040 Climbing Memphis Center
22:13 36.0936 -87.0511 273° West 282 325 12,800 2,400 Climbing Memphis Center
22:14 36.0967 -87.1667 272° West 324 373 15,700 2,700 Climbing Memphis Center
22:15 36.0872 -87.2853 264° West 344 396 18,300 2,340 Climbing Memphis Center
22:16 36.0631 -87.4067 256° West 359 413 20,400 2,100 Climbing Memphis Center
22:17 36.0367 -87.5333 256° West 365 420 22,600 2,100 Climbing Memphis Center
22:18 36.0103 -87.6575 255° West 378 435 24,700 1,800 Climbing Memphis Center
22:19 35.9858 -87.7867 257° West 384 442 26,300 1,680 Climbing Memphis Center
22:20 35.9575 -87.9233 256° West 402 463 28,100 1,860 Climbing Memphis Center
22:21 35.9347 -88.0394 256° West 397 457 30,100 1,920 Climbing Memphis Center
22:22 35.9058 -88.1708 255° West 387 445 32,000 1,680 Climbing Memphis Center
22:23 35.8725 -88.2947 252° West 376 433 33,500 960 Climbing Memphis Center
22:24 35.8158 -88.4036 237° Southwest 376 433 34,000 240 Climbing Memphis Center
22:25 35.7611 -88.5125 238° Southwest 382 440 34,000 180 Level Memphis Center
22:26 35.7044 -88.6261 238° Southwest 387 445 34,400 900 Climbing Memphis Center
22:27 35.6494 -88.7347 238° Southwest 387 445 35,900 780 Climbing Memphis Center
22:28 35.6050 -88.8300 240° Southwest 387 445 36,000  Climbing Memphis Center
22:29 35.5497 -88.9356 237° Southwest 376 433 36,000  Level Memphis Center
22:30 35.4969 -89.0464 240° Southwest 376 433 36,000  Level Memphis Center
22:31 35.4375 -89.1594 237° Southwest 376 433 36,000  Level Memphis Center
22:32 35.3842 -89.2669 239° Southwest 370 426 36,000  Level Memphis Center
22:33 35.3308 -89.3722 238° Southwest 370 426 36,000  Level Memphis Center
22:34 35.2753 -89.4769 237° Southwest 370 426 36,000  Level Memphis Center
22:35 35.2239 -89.5819 239° Southwest 370 426 36,000  Level Memphis Center
22:36 35.1703 -89.6889 239° Southwest 370 426 36,000  Level Memphis Center
22:37 35.1167 -89.7936 238° Southwest 370 426 36,000  Level Memphis Center
22:38 35.0628 -89.9006 238° Southwest 370 426 36,000  Level Memphis Center
22:39 35.0028 -90.0047 235° Southwest 370 426 36,000  Level Memphis Center
22:40 34.9172 -90.0786 215° Southwest 375 432 36,000  Level Memphis Center
22:41 34.8319 -90.1572 217° Southwest 386 444 36,000  Level Memphis Center
22:42 34.7486 -90.2358 218° Southwest 386 444 36,000  Level Memphis Center
22:43 34.6653 -90.3117 217° Southwest 386 444 36,000  Level Memphis Center
22:44 34.5817 -90.3875 217° Southwest 386 444 36,000  Level Memphis Center
22:45 34.4983 -90.4606 216° Southwest 386 444 36,000  Level Memphis Center
22:46 34.4125 -90.5408 218° Southwest 386 444 36,000  Level Memphis Center
22:47 34.3311 -90.6161 217° Southwest 381 438 36,000  Level Memphis Center
22:48 34.2558 -90.6814 216° Southwest 381 438 36,000  Level Memphis Center
22:49 34.1700 -90.7589 217° Southwest 387 445 36,000  Level Memphis Center
22:50 34.0883 -90.8336 217° Southwest 387 445 36,000  Level Memphis Center
22:51 34.0025 -90.9083 216° Southwest 387 445 36,000  Level Memphis Center
22:52 33.9208 -90.9831 217° Southwest 387 445 36,000  Level Memphis Center
22:53 33.8369 -91.0550 215° Southwest 387 445 36,000  Level Memphis Center
22:54 33.7531 -91.1317 217° Southwest 382 440 36,000  Level Memphis Center
22:55 33.6711 -91.2058 217° Southwest 382 440 36,000  Level Memphis Center
22:56 33.5869 -91.2797 216° Southwest 387 445 36,000  Level Memphis Center
22:57 33.5031 -91.3536 216° Southwest 387 445 36,000  Level Memphis Center
22:59 33.3853 -91.4631 218° Southwest 380 437 36,000  Level Fort Worth Center
23:00 33.2992 -91.5361 215° Southwest 373 429 36,000  Level Fort Worth Center
23:01 33.2150 -91.6111 217° Southwest 378 435 36,000  Level Fort Worth Center
23:02 33.1186 -91.6919 215° Southwest 383 441 36,000  Level Fort Worth Center
23:03 33.0344 -91.7692 218° Southwest 389 448 36,000  Level Fort Worth Center
23:04 32.9619 -91.8281 214° Southwest 370 426 36,000  Level Fort Worth Center
23:05 32.8733 -91.9031 215° Southwest 376 433 36,000  Level Fort Worth Center
23:06 32.7911 -91.9772 217° Southwest 376 433 36,000  Level Fort Worth Center
23:07 32.7025 -92.0542 216° Southwest 376 433 36,000  Level Fort Worth Center
23:09 32.5169 -92.2131 216° Southwest 380 437 36,000  Level Houston Center
23:10 32.4300 -92.2819 214° Southwest 378 435 36,000  Level Houston Center
23:11 32.3442 -92.3556 216° Southwest 382 440 36,000  Level Houston Center
23:12 32.2589 -92.4272 215° Southwest 379 436 36,000  Level Houston Center
23:13 32.1753 -92.5017 217° Southwest 377 434 36,000  Level Houston Center
23:14 32.0894 -92.5733 215° Southwest 379 436 36,000  Level Houston Center
23:15 32.0067 -92.6486 218° Southwest 379 436 36,000  Level Houston Center
23:16 31.9308 -92.7289 222° Southwest 372 428 36,000  Level Houston Center
23:17 31.8489 -92.8361 228° Southwest 369 425 36,000  Level Houston Center
23:18 31.7794 -92.9233 227° Southwest 367 422 36,000 -60 Level Houston Center
23:19 31.7108 -93.0100 227° Southwest 364 419 35,900  Descending Houston Center
23:20 31.6417 -93.0978 227° Southwest 367 422 36,000  Climbing Houston Center
23:21 31.5722 -93.1839 227° Southwest 365 420 36,000  Level Houston Center
23:22 31.5042 -93.2719 228° Southwest 365 420 36,000  Level Houston Center
23:23 31.4336 -93.3614 227° Southwest 366 421 36,000  Level Houston Center
23:24 31.3650 -93.4478 227° Southwest 365 420 36,000  Level Houston Center
23:25 31.2964 -93.5339 227° Southwest 363 418 36,000  Level Houston Center
23:26 31.2300 -93.6161 227° Southwest 358 412 36,000  Level Houston Center
23:27 31.1625 -93.6983 226° Southwest 353 406 36,000  Level Houston Center
23:28 31.0967 -93.7808 227° Southwest 350 403 36,000  Level Houston Center
23:29 31.0308 -93.8631 227° Southwest 348 400 36,000  Level Houston Center
23:30 30.9511 -93.9611 227° Southwest 349 402 36,000 -60 Level Houston Center
23:31 30.8861 -94.0414 227° Southwest 345 397 35,900 -900 Descending Houston Center
23:32 30.8211 -94.1211 226° Southwest 342 394 34,200 -2,460 Descending Houston Center
23:33 30.7542 -94.2014 226° Southwest 352 405 31,000 -3,180 Descending Houston Center
23:34 30.6803 -94.2911 226° Southwest 374 430 27,900 -2,940 Descending Houston Center
23:35 30.6189 -94.3675 227° Southwest 375 432 25,700 -2,700 Descending Houston Center
23:36 30.5569 -94.4436 227° Southwest 361 415 23,200 -2,520 Descending Houston Center
23:36 30.5425 -94.4608 226° Southwest 360 414 22,700 -2,460 Descending Houston Center
23:37 30.4894 -94.5253 226° Southwest 351 404 20,700 -2,520 Descending Houston Center
23:37 30.4769 -94.5444 233° Southwest 351 404 20,200 -2,460 Descending Houston Center
23:38 30.4364 -94.6072 233° Southwest 340 391 18,500 -2,700 Descending Houston Center
23:38 30.4150 -94.6414 234° Southwest 341 392 17,500 -2,400 Descending Houston Center
23:39 30.3689 -94.7128 233° Southwest 328 377 15,600 -2,340 Descending Houston Center
23:40 30.3086 -94.8078 234° Southwest 320 368 13,000 -1,800 Descending Houston Center
23:41 30.2664 -94.8711 232° Southwest 320 368 12,200 -1,320 Descending Houston Center
23:41 30.2544 -94.8917 236° Southwest 321 369 11,600 -2,100 Descending Houston Center
23:42 30.2131 -94.9528 232° Southwest 314 361 10,100 -1,620 Descending Houston Center
23:42 30.2028 -94.9714 237° Southwest 314 361 10,000 -120 Descending Houston Center
23:43 30.1617 -95.0317 232° Southwest 309 356 10,000  Level Houston Center
23:43 30.1514 -95.0506 238° Southwest 309 356 10,000  Level Houston Center
23:44 30.0775 -95.0978 209° Southwest 306 352 10,000  Level Houston Center
23:45 30.0028 -95.1286 200° South 305 351 10,000  Level Houston Center
23:46 29.9239 -95.1625 200° South 306 352 10,000 -60 Level Houston Center
23:47 29.8492 -95.1933 200° South 307 353 9,900 -120 Descending Houston Center
23:47 29.8400 -95.1983 205° Southwest 302 348 9,900 -300 Level Houston Center
23:48 29.7867 -95.2203 200° South 227 261 9,600 -540 Descending Houston Center
23:49 29.7789 -95.2244 205° Southwest 239 275 9,400 -1,320 Descending Houston Center
23:49 29.7292 -95.2344 190° South 203 234 8,300 -1,320 Descending Houston Center
23:50 29.7203 -95.2336 175° South 220 253 8,100 -1,500 Descending Houston Center
23:50 29.6681 -95.2347 181° South 219 252 6,800 -1,500 Descending Houston Center
23:51 29.6608 -95.2361 189° South 216 249 6,600 -1,620 Descending Houston Center
23:51 29.6056 -95.2375 181° South 217 250 5,200 -1,920 Descending Houston Center
23:52 29.5897 -95.2386 183° South 219 252 4,700 -1,680 Descending Houston Center
23:52 29.5481 -95.2539 198° South 223 257 3,500 -1,500 Descending Houston Center
23:53 29.5358 -95.2669 223° Southwest 225 259 3,200 -720 Descending Houston Center
23:53 29.5172 -95.3058 241° Southwest 194 223 2,800 -720 Descending Houston Center
23:54 29.5250 -95.3189 304° West 214 246 2,500 -1,200 Descending Houston Center
23:54 29.5617 -95.3317 343° North 177 204 1,600 -1,140 Descending Houston Center
23:55 29.5739 -95.3317 360° North 191 220 1,400 -660 Descending Houston Center
23:55 29.6008 -95.3244 13° North 142 163 1,000 -600 Descending Houston Center
23:56 29.6119 -95.3164 32° Northeast 164 189 800 -720 Descending Houston Center
23:56 29.6314 -95.2919 48° Northeast 137 158 200 -720 Descending Houston Center
23:57 29.6394 -95.2847 38° Northeast 147 169 100 -420 Descending Houston Center